Flag for U.S.A. Weather past 2 weeks in Memphis, Tennessee, U.S.A.

Now
95 °F

Scattered clouds.


Feels Like: 103 °F
Forecast: 77 / 95 °F
Wind: 6 mph from Southwest

Location: Memphis International Airport

Current Time: Aug 22, 2014 at 3:48:20 PM

Latest Report: Aug 22, 2014 at 2:54 PM


Visibility: 10 mi

Pressure: 30.01 "Hg

Humidity: 47%

Dew point: 72 °F

Location of MemphisLocation

Historic Weather in Memphis — Graph

°F

Memphis temperature yesterday

Maximum temperature yesterday: 96 °F (at 2:54 PM)
Minimum temperature yesterday: 77 °F (at 5:54 AM)
Average temperature yesterday: 85 °F

Past Weeks' High & Low Weather Summary

 TemperatureHumidityPressure
High96 °F (Aug 21, 2:54 PM)94% (Aug 9, 5:54 AM)30.11 "Hg (Aug 9, 5:54 AM)
Low65 °F (Aug 14, 4:54 AM)35% (Aug 15, 4:54 PM)29.83 "Hg (Aug 19, 2:54 AM)
Average81 °F68%29.96 "Hg
* Reported Aug 7 1:54 PM — Aug 22 1:54 PM, Memphis, Weather by CustomWeather, © 2014

Note: Actual official high and low records may vary slightly from our data, if they occured in-between our weather recording intervals... More about our weather records

Advertising

Memphis weather history for previous 24 hours

 ConditionsComfort  
Time TempWeatherWind HumidityBarometerVisibility
1:54 PM
Aug 22
96 °FPassing clouds.9 mph46%30.03 "Hg10 mi
12:54 PM94 °FPassing clouds.7 mph49%30.06 "Hg10 mi
11:54 AM92 °FScattered clouds.7 mph54%30.06 "Hg10 mi
10:54 AM90 °FPassing clouds.8 mph59%30.07 "Hg10 mi
9:54 AM87 °FScattered clouds.7 mph63%30.08 "Hg10 mi
8:54 AM83 °FPassing clouds.6 mph72%30.08 "Hg10 mi
7:54 AM80 °FPassing clouds.6 mph76%30.08 "Hg10 mi
6:54 AM77 °FPassing clouds.3 mph82%30.06 "Hg10 mi
5:54 AM77 °FPassing clouds.9 mph82%30.05 "Hg10 mi
4:54 AM77 °FClear.8 mph85%30.04 "Hg10 mi
3:54 AM78 °FClear.9 mph84%30.04 "Hg10 mi
2:54 AM79 °FClear.7 mph82%30.03 "Hg10 mi
1:54 AM80 °FClear.No wind81%30.03 "Hg10 mi
12:54 AM83 °FClear.5 mph74%30.03 "Hg10 mi
11:54 PM
Aug 21
83 °FClear.8 mph74%30.03 "Hg10 mi
10:54 PM85 °FClear.9 mph68%30.03 "Hg10 mi
9:54 PM84 °FClear.8 mph70%30.03 "Hg10 mi
8:54 PM86 °FPassing clouds.9 mph67%30.04 "Hg10 mi
7:54 PM87 °FPassing clouds.7 mph61%30.03 "Hg10 mi
6:54 PM90 °FScattered clouds.5 mph56%30.02 "Hg10 mi
5:54 PM92 °FScattered clouds.8 mph52%30.01 "Hg10 mi
4:54 PM92 °FScattered clouds.8 mph51%30.02 "Hg10 mi
3:54 PM95 °FScattered clouds.10 mph47%30.04 "Hg10 mi
Weather by CustomWeather, © 2014

See weather overviewHow to use our weather pages